This is the latest recevied weather packets stored in our database for station/object KY4OP-13. If no packets are shown the sender has not sent any weather packets the latest 10 day(s).
| Time | Temp. | Humidity | Pressure | Rain* | Wind** | Luminosity | Snow |
|---|---|---|---|---|---|---|---|
| 1777700364 | 10° C | 88% | 1014.9 hPa | 0 mm | - | - | - |
| 1777700061 | 10° C | 87% | 1015.1 hPa | 0 mm | - | - | - |
| 1777699759 | 10.56° C | 86% | 1014.9 hPa | 0 mm | - | - | - |
| 1777699457 | 10.56° C | 86% | 1014.8 hPa | 0 mm | - | - | - |
| 1777699155 | 10.56° C | 85% | 1014.8 hPa | 0 mm | - | - | - |
| 1777698853 | 10.56° C | 85% | 1014.9 hPa | 0 mm | - | - | - |
| 1777698549 | 11.11° C | 83% | 1014.8 hPa | 0 mm | - | - | - |
| 1777698245 | 11.11° C | 81% | 1014.8 hPa | 0 mm | - | - | - |
| 1777697943 | 11.11° C | 80% | 1014.9 hPa | 0 mm | - | - | - |
| 1777697640 | 11.11° C | 80% | 1015 hPa | 0 mm | - | - | - |
| 1777697337 | 11.11° C | 80% | 1014.7 hPa | 0 mm | - | - | - |
| 1777697032 | 11.67° C | 80% | 1014.9 hPa | 0 mm | - | - | - |
| 1777696730 | 11.67° C | 78% | 1015 hPa | 0 mm | - | - | - |
| 1777696427 | 11.67° C | 78% | 1014.8 hPa | 0 mm | - | - | - |
| 1777696126 | 11.67° C | 77% | 1014.8 hPa | 0 mm | - | - | - |
| 1777695824 | 11.67° C | 79% | 1014.7 hPa | 0 mm | - | - | - |
| 1777695521 | 11.67° C | 78% | 1014.9 hPa | 0 mm | - | - | - |
| 1777695218 | 11.67° C | 78% | 1014.6 hPa | 0 mm | - | - | - |
| 1777694916 | 12.22° C | 78% | 1014.9 hPa | 0 mm | - | - | - |
| 1777694613 | 12.22° C | 77% | 1015 hPa | 0 mm | - | - | - |
| 1777694309 | 12.22° C | 74% | 1014.8 hPa | 0 mm | - | - | - |
| 1777694005 | 12.22° C | 74% | 1014.8 hPa | 0 mm | - | - | - |
| 1777693703 | 12.22° C | 75% | 1014.6 hPa | 0 mm | - | - | - |
| 1777693401 | 12.22° C | 74% | 1014.5 hPa | 0 mm | - | - | - |
| 1777693099 | 12.22° C | 74% | 1014.5 hPa | 0 mm | - | - | - |
* Rain latest hour (hover to see other rain measurements)
** Current wind speed in m/s (hover to see current wind gust speed)